Time,TemperatureF,DewpointF,PressureIn,WindDirection,WindDirectionDegrees,WindSpeedMPH,WindSpeedGustMPH,Humidity,HourlyPrecipIn,Conditions,Clouds,dailyrainin,SolarRadiationWatts/m^2,SoftwareType,DateUTC
2013-05-06 00:01:00,48.6,42.0,30.05,NW,315,0.0,0.0,78,0.00,CLR,OVC,0.00,0.0,WeatherDisplay:10.37,2013-05-06 05:01:00,
2013-05-06 00:06:00,48.4,41.8,30.05,NW,315,0.0,0.0,78,0.00,CLR,OVC,0.00,0.0,WeatherDisplay:10.37,2013-05-06 05:06:00,
2013-05-06 00:11:00,48.2,41.7,30.05,NW,315,0.0,0.0,78,0.00,CLR,OVC,0.00,0.0,WeatherDisplay:10.37,2013-05-06 05:11:00,
2013-05-06 00:16:00,48.0,41.8,30.05,NW,315,0.0,0.0,79,0.00,CLR,OVC,0.00,0.0,WeatherDisplay:10.37,2013-05-06 05:16:00,
2013-05-06 00:21:00,48.0,42.1,30.05,NW,315,0.0,0.0,80,0.00,CLR,OVC,0.00,0.0,WeatherDisplay:10.37,2013-05-06 05:21:00,
2013-05-06 00:26:00,48.2,42.3,30.05,NW,315,0.0,0.0,80,0.00,CLR,OVC,0.00,0.0,WeatherDisplay:10.37,2013-05-06 05:26:00,
2013-05-06 00:31:00,48.2,42.3,30.05,NW,315,0.0,0.0,80,0.00,CLR,OVC,0.00,0.0,WeatherDisplay:10.37,2013-05-06 05:31:00,
2013-05-06 00:36:00,48.2,42.6,30.05,NW,315,0.0,0.0,81,0.00,CLR,OVC,0.00,0.0,WeatherDisplay:10.37,2013-05-06 05:36:00,
2013-05-06 00:41:00,48.4,43.1,30.05,NW,315,0.0,0.0,82,0.00,CLR,OVC,0.00,0.0,WeatherDisplay:10.37,2013-05-06 05:41:00,
2013-05-06 00:46:00,48.6,43.6,30.05,NW,315,0.0,0.0,83,0.00,CLR,OVC,0.00,0.0,WeatherDisplay:10.37,2013-05-06 05:46:00,
2013-05-06 00:51:00,48.7,43.5,30.05,NW,315,0.0,0.0,82,0.00,CLR,OVC,0.00,0.0,WeatherDisplay:10.37,2013-05-06 05:51:00,
2013-05-06 00:56:00,48.7,43.8,30.05,ENE,73,3.5,3.5,83,0.00,CLR,OVC,0.00,0.0,WeatherDisplay:10.37,2013-05-06 05:56:00,
2013-05-06 01:01:00,48.9,44.0,30.05,ENE,73,2.3,2.3,83,0.00,CLR,OVC,0.00,0.0,WeatherDisplay:10.37,2013-05-06 06:01:00,
2013-05-06 01:06:00,49.3,44.3,30.05,ENE,73,2.3,0.0,83,0.00,CLR,OVC,0.00,0.0,WeatherDisplay:10.37,2013-05-06 06:06:00,
2013-05-06 01:11:00,49.5,44.2,30.05,ENE,73,2.3,0.0,82,0.00,CLR,OVC,0.00,0.0,WeatherDisplay:10.37,2013-05-06 06:11:00,
2013-05-06 01:16:00,49.5,44.2,30.05,ENE,73,0.0,0.0,82,0.00,CLR,OVC,0.00,0.0,WeatherDisplay:10.37,2013-05-06 06:16:00,
2013-05-06 01:21:00,49.3,43.7,30.05,ENE,73,0.0,0.0,81,0.00,CLR,OVC,0.00,0.0,WeatherDisplay:10.37,2013-05-06 06:21:00,
2013-05-06 01:26:00,49.1,43.5,30.05,ENE,73,0.0,0.0,81,0.00,CLR,OVC,0.00,0.0,WeatherDisplay:10.37,2013-05-06 06:26:00,
2013-05-06 01:31:00,48.9,43.3,30.05,ENE,73,0.0,0.0,81,0.00,CLR,OVC,0.00,0.0,WeatherDisplay:10.37,2013-05-06 06:31:00,
2013-05-06 01:36:00,48.9,43.3,30.05,ENE,73,0.0,0.0,81,0.00,CLR,OVC,0.00,0.0,WeatherDisplay:10.37,2013-05-06 06:36:00,
2013-05-06 01:41:00,48.7,43.2,30.05,ENE,73,0.0,0.0,81,0.00,CLR,OVC,0.00,0.0,WeatherDisplay:10.37,2013-05-06 06:41:00,
2013-05-06 01:46:00,48.6,43.0,30.05,ENE,73,0.0,0.0,81,0.00,CLR,OVC,0.00,0.0,WeatherDisplay:10.37,2013-05-06 06:46:00,
2013-05-06 01:51:00,48.4,42.8,30.05,ENE,73,0.0,0.0,81,0.00,CLR,OVC,0.00,0.0,WeatherDisplay:10.37,2013-05-06 06:51:00,
2013-05-06 01:56:00,48.4,43.1,30.05,ENE,73,0.0,0.0,82,0.00,CLR,OVC,0.00,0.0,WeatherDisplay:10.37,2013-05-06 06:56:00,
2013-05-06 02:01:00,48.2,43.0,30.05,ENE,73,0.0,0.0,82,0.00,CLR,OVC,0.00,0.0,WeatherDisplay:10.37,2013-05-06 07:01:00,
2013-05-06 02:06:00,48.0,43.1,30.05,ENE,73,0.0,0.0,83,0.00,CLR,OVC,0.00,0.0,WeatherDisplay:10.37,2013-05-06 07:06:00,
2013-05-06 02:11:00,47.8,42.9,30.05,ENE,73,0.0,0.0,83,0.00,CLR,OVC,0.00,0.0,WeatherDisplay:10.37,2013-05-06 07:11:00,
2013-05-06 02:16:00,47.5,42.6,30.05,ENE,73,0.0,0.0,83,0.00,CLR,OVC,0.00,0.0,WeatherDisplay:10.37,2013-05-06 07:16:00,
2013-05-06 02:21:00,47.1,42.2,30.05,ENE,73,0.0,0.0,83,0.00,CLR,OVC,0.00,0.0,WeatherDisplay:10.37,2013-05-06 07:21:00,
2013-05-06 02:26:00,46.9,42.0,30.05,ENE,73,0.0,0.0,83,0.00,CLR,OVC,0.00,0.0,WeatherDisplay:10.37,2013-05-06 07:26:00,
2013-05-06 02:31:00,46.6,41.7,30.05,ENE,73,0.0,0.0,83,0.00,CLR,OVC,0.00,0.0,WeatherDisplay:10.37,2013-05-06 07:31:00,
2013-05-06 02:36:00,46.2,42.0,30.05,ENE,73,0.0,0.0,85,0.00,CLR,OVC,0.00,0.0,WeatherDisplay:10.37,2013-05-06 07:36:00,
2013-05-06 02:41:00,46.0,42.1,30.05,ENE,73,0.0,0.0,86,0.00,CLR,OVC,0.00,0.0,WeatherDisplay:10.37,2013-05-06 07:41:00,
2013-05-06 02:46:00,45.7,41.7,30.05,ENE,73,0.0,0.0,86,0.00,CLR,OVC,0.00,0.0,WeatherDisplay:10.37,2013-05-06 07:46:00,
2013-05-06 02:51:00,45.5,41.9,30.05,ENE,73,0.0,0.0,87,0.00,CLR,OVC,0.00,0.0,WeatherDisplay:10.37,2013-05-06 07:51:00,
2013-05-06 02:56:00,45.1,41.5,30.05,ENE,73,0.0,0.0,87,0.00,CLR,OVC,0.00,0.0,WeatherDisplay:10.37,2013-05-06 07:56:00,
2013-05-06 03:01:00,44.8,41.1,30.05,ENE,73,0.0,0.0,87,0.00,CLR,OVC,0.00,0.0,WeatherDisplay:10.37,2013-05-06 08:01:00,
2013-05-06 03:06:00,44.2,40.9,30.05,ENE,73,0.0,0.0,88,0.00,CLR,OVC,0.00,0.0,WeatherDisplay:10.37,2013-05-06 08:06:00,
2013-05-06 03:11:00,44.1,41.0,30.05,ENE,73,0.0,0.0,89,0.00,CLR,OVC,0.00,0.0,WeatherDisplay:10.37,2013-05-06 08:11:00,
2013-05-06 03:16:00,43.7,40.7,30.05,ENE,73,0.0,0.0,89,0.00,CLR,OVC,0.00,0.0,WeatherDisplay:10.37,2013-05-06 08:16:00,
2013-05-06 03:21:00,43.5,40.8,30.05,ENE,73,0.0,0.0,90,0.00,CLR,OVC,0.00,0.0,WeatherDisplay:10.37,2013-05-06 08:21:00,
2013-05-06 03:26:00,43.3,40.9,30.05,ENE,73,0.0,0.0,91,0.00,CLR,OVC,0.00,0.0,WeatherDisplay:10.37,2013-05-06 08:26:00,
2013-05-06 03:31:00,43.2,40.7,30.05,ENE,73,0.0,0.0,91,0.00,CLR,OVC,0.00,0.0,WeatherDisplay:10.37,2013-05-06 08:31:00,
2013-05-06 03:36:00,43.0,40.8,30.05,ENE,73,0.0,0.0,92,0.00,CLR,OVC,0.00,0.0,WeatherDisplay:10.37,2013-05-06 08:36:00,
2013-05-06 03:41:00,42.8,40.9,30.05,ENE,73,0.0,0.0,93,0.00,CLR,OVC,0.00,0.0,WeatherDisplay:10.37,2013-05-06 08:41:00,
2013-05-06 03:46:00,42.8,40.9,30.08,ENE,73,0.0,0.0,93,0.00,CLR,OVC,0.00,0.0,WeatherDisplay:10.37,2013-05-06 08:46:00,
2013-05-06 03:51:00,42.8,41.2,30.08,ENE,73,0.0,0.0,94,0.00,CLR,OVC,0.00,0.0,WeatherDisplay:10.37,2013-05-06 08:51:00,
2013-05-06 03:56:00,42.8,41.2,30.08,ENE,73,0.0,0.0,94,0.00,CLR,OVC,0.00,0.0,WeatherDisplay:10.37,2013-05-06 08:56:00,
2013-05-06 04:01:00,42.8,41.5,30.08,ENE,73,0.0,0.0,95,0.00,CLR,OVC,0.00,0.0,WeatherDisplay:10.37,2013-05-06 09:01:00,
2013-05-06 04:06:00,43.0,41.9,30.08,ENE,73,0.0,0.0,96,0.00,CLR,OVC,0.00,0.0,WeatherDisplay:10.37,2013-05-06 09:06:00,
2013-05-06 04:11:00,43.0,41.9,30.08,ENE,73,0.0,0.0,96,0.00,CLR,OVC,0.00,0.0,WeatherDisplay:10.37,2013-05-06 09:11:00,
2013-05-06 04:16:00,43.0,42.2,30.08,ENE,73,0.0,0.0,97,0.00,CLR,OVC,0.00,0.0,WeatherDisplay:10.37,2013-05-06 09:16:00,
2013-05-06 04:21:00,43.2,42.6,30.08,ENE,73,0.0,0.0,98,0.00,CLR,OVC,0.00,0.0,WeatherDisplay:10.37,2013-05-06 09:21:00,
2013-05-06 04:26:00,43.2,42.6,30.08,ENE,73,0.0,0.0,98,0.00,CLR,OVC,0.00,0.0,WeatherDisplay:10.37,2013-05-06 09:26:00,
2013-05-06 04:31:00,43.2,42.6,30.08,ENE,73,0.0,0.0,98,0.00,CLR,OVC,0.00,0.0,WeatherDisplay:10.37,2013-05-06 09:31:00,
2013-05-06 04:36:00,43.2,42.6,30.08,ENE,73,0.0,0.0,98,0.00,CLR,OVC,0.00,0.0,WeatherDisplay:10.37,2013-05-06 09:36:00,
2013-05-06 04:41:00,43.0,42.7,30.08,ENE,73,0.0,0.0,99,0.00,CLR,OVC,0.00,0.0,WeatherDisplay:10.37,2013-05-06 09:41:00,
2013-05-06 04:45:00,43.0,42.7,30.08,ENE,73,0.0,0.0,99,0.00,CLR,OVC,0.00,0.0,WeatherDisplay:10.37,2013-05-06 09:45:00,
2013-05-06 04:50:00,43.2,43.2,30.08,ENE,73,0.0,0.0,100,0.00,CLR,OVC,0.00,0.0,WeatherDisplay:10.37,2013-05-06 09:50:00,
2013-05-06 04:55:00,43.2,43.2,30.08,ENE,73,0.0,0.0,100,0.00,CLR,OVC,0.00,0.0,WeatherDisplay:10.37,2013-05-06 09:55:00,
2013-05-06 05:00:00,43.0,42.7,30.08,ENE,73,0.0,0.0,99,0.00,CLR,OVC,0.00,0.0,WeatherDisplay:10.37,2013-05-06 10:00:00,
2013-05-06 05:05:00,42.6,42.6,30.08,ENE,73,0.0,0.0,100,0.00,CLR,OVC,0.00,0.0,WeatherDisplay:10.37,2013-05-06 10:05:00,
2013-05-06 05:10:00,42.4,42.4,30.08,ENE,73,0.0,0.0,100,0.00,CLR,OVC,0.00,0.0,WeatherDisplay:10.37,2013-05-06 10:10:00,
2013-05-06 05:15:00,42.3,42.3,30.08,ENE,73,0.0,0.0,100,0.00,CLR,OVC,0.00,0.0,WeatherDisplay:10.37,2013-05-06 10:15:00,
2013-05-06 05:20:00,42.1,42.1,30.08,ENE,73,0.0,0.0,100,0.00,CLR,OVC,0.00,0.0,WeatherDisplay:10.37,2013-05-06 10:20:00,
2013-05-06 05:25:00,41.9,41.9,30.08,ENE,73,0.0,0.0,100,0.00,CLR,OVC,0.00,0.0,WeatherDisplay:10.37,2013-05-06 10:25:00,
2013-05-06 05:30:00,41.7,41.7,30.08,ENE,73,0.0,0.0,100,0.00,CLR,OVC,0.00,0.0,WeatherDisplay:10.37,2013-05-06 10:30:00,
2013-05-06 05:35:00,41.7,41.7,30.08,ENE,73,0.0,0.0,100,0.00,CLR,OVC,0.00,0.0,WeatherDisplay:10.37,2013-05-06 10:35:00,
2013-05-06 05:40:00,41.7,41.7,30.08,ENE,73,0.0,0.0,100,0.00,CLR,OVC,0.00,0.0,WeatherDisplay:10.37,2013-05-06 10:40:00,
2013-05-06 05:45:00,41.9,41.9,30.11,ENE,73,0.0,0.0,100,0.00,CLR,OVC,0.00,0.0,WeatherDisplay:10.37,2013-05-06 10:45:00,
2013-05-06 05:50:00,41.9,41.9,30.11,ENE,73,0.0,0.0,100,0.00,CLR,OVC,0.00,0.0,WeatherDisplay:10.37,2013-05-06 10:50:00,
2013-05-06 05:55:00,41.7,41.7,30.11,ENE,73,0.0,0.0,100,0.00,CLR,OVC,0.00,0.0,WeatherDisplay:10.37,2013-05-06 10:55:00,
2013-05-06 06:00:00,41.7,41.7,30.11,ENE,73,0.0,0.0,100,0.00,CLR,OVC,0.00,0.0,WeatherDisplay:10.37,2013-05-06 11:00:00,
2013-05-06 06:05:00,41.7,41.7,30.11,ENE,73,0.0,0.0,100,0.00,CLR,OVC,0.00,0.0,WeatherDisplay:10.37,2013-05-06 11:05:00,
2013-05-06 06:10:00,41.7,41.7,30.11,ENE,73,0.0,0.0,100,0.00,CLR,OVC,0.00,0.0,WeatherDisplay:10.37,2013-05-06 11:10:00,
2013-05-06 06:15:00,41.7,41.7,30.11,ENE,73,0.0,0.0,100,0.00,CLR,OVC,0.00,0.0,WeatherDisplay:10.37,2013-05-06 11:15:00,
2013-05-06 06:20:00,41.7,41.7,30.11,ENE,72,0.0,0.0,100,0.00,CLR,OVC,0.00,0.0,WeatherDisplay:10.37,2013-05-06 11:20:00,
2013-05-06 06:25:00,41.9,41.9,30.11,ENE,72,0.0,0.0,100,0.00,CLR,OVC,0.00,0.0,WeatherDisplay:10.37,2013-05-06 11:25:00,
2013-05-06 06:30:00,42.1,42.1,30.11,ENE,72,0.0,0.0,100,0.00,CLR,OVC,0.00,0.0,WeatherDisplay:10.37,2013-05-06 11:30:00,
2013-05-06 06:35:00,42.3,42.3,30.11,ENE,72,0.0,0.0,100,0.00,CLR,OVC,0.00,0.0,WeatherDisplay:10.37,2013-05-06 11:35:00,
2013-05-06 06:40:00,42.3,42.3,30.11,ENE,72,0.0,0.0,100,0.00,CLR,OVC,0.00,0.0,WeatherDisplay:10.37,2013-05-06 11:40:00,
2013-05-06 06:45:00,42.4,42.4,30.11,ENE,72,0.0,0.0,100,0.00,CLR,OVC,0.00,0.0,WeatherDisplay:10.37,2013-05-06 11:45:00,
2013-05-06 06:50:00,42.8,42.8,30.11,ENE,72,0.0,0.0,100,0.00,CLR,OVC,0.00,0.0,WeatherDisplay:10.37,2013-05-06 11:50:00,
2013-05-06 06:55:00,43.2,43.2,30.11,ENE,72,0.0,0.0,100,0.00,CLR,OVC,0.00,0.0,WeatherDisplay:10.37,2013-05-06 11:55:00,
2013-05-06 07:00:00,43.5,43.5,30.11,ENE,72,0.0,0.0,100,0.00,CLR,OVC,0.00,0.0,WeatherDisplay:10.37,2013-05-06 12:00:00,
2013-05-06 07:05:00,43.9,43.9,30.11,ENE,72,0.0,0.0,100,0.00,CLR,OVC,0.00,0.0,WeatherDisplay:10.37,2013-05-06 12:05:00,
2013-05-06 07:10:00,44.4,44.4,30.11,ENE,72,0.0,0.0,100,0.00,CLR,OVC,0.00,0.0,WeatherDisplay:10.37,2013-05-06 12:10:00,
2013-05-06 07:15:00,45.0,45.0,30.11,ENE,72,0.0,0.0,100,0.00,CLR,OVC,0.00,0.0,WeatherDisplay:10.37,2013-05-06 12:15:00,
2013-05-06 07:20:00,45.5,45.5,30.11,ENE,72,0.0,0.0,100,0.00,CLR,OVC,0.00,0.0,WeatherDisplay:10.37,2013-05-06 12:20:00,
2013-05-06 07:25:00,46.2,46.2,30.11,ENE,72,0.0,0.0,100,0.00,CLR,OVC,0.00,0.0,WeatherDisplay:10.37,2013-05-06 12:25:00,
2013-05-06 07:30:00,46.9,46.9,30.11,ENE,72,0.0,0.0,100,0.00,CLR,OVC,0.00,0.0,WeatherDisplay:10.37,2013-05-06 12:30:00,
2013-05-06 07:35:00,47.7,47.7,30.11,ENE,72,0.0,0.0,100,0.00,CLR,OVC,0.00,0.0,WeatherDisplay:10.37,2013-05-06 12:35:00,
2013-05-06 07:40:00,48.6,48.6,30.11,ENE,72,0.0,0.0,100,0.00,CLR,OVC,0.00,0.0,WeatherDisplay:10.37,2013-05-06 12:40:00,
2013-05-06 07:45:00,49.3,49.3,30.11,ENE,72,0.0,0.0,100,0.00,CLR,OVC,0.00,0.0,WeatherDisplay:10.37,2013-05-06 12:45:00,
2013-05-06 07:50:00,49.8,49.8,30.11,ENE,72,0.0,0.0,100,0.00,CLR,OVC,0.00,0.0,WeatherDisplay:10.37,2013-05-06 12:50:00,
2013-05-06 07:55:00,50.5,50.5,30.11,ENE,72,0.0,0.0,100,0.00,CLR,OVC,0.00,0.0,WeatherDisplay:10.37,2013-05-06 12:55:00,
2013-05-06 08:00:00,51.3,50.2,30.11,ENE,72,0.0,0.0,96,0.00,CLR,OVC,0.00,0.0,WeatherDisplay:10.37,2013-05-06 13:00:00,
2013-05-06 08:05:00,52.2,48.4,30.11,NE,55,3.5,3.5,87,0.00,CLR,OVC,0.00,0.0,WeatherDisplay:10.37,2013-05-06 13:05:00,
2013-05-06 08:10:00,52.9,47.5,30.11,ENE,75,2.3,0.0,82,0.00,CLR,OVC,0.00,0.0,WeatherDisplay:10.37,2013-05-06 13:10:00,
2013-05-06 08:15:00,53.8,47.1,30.11,ENE,65,3.5,3.5,78,0.00,CLR,OVC,0.00,0.0,WeatherDisplay:10.37,2013-05-06 13:15:00,
2013-05-06 08:20:00,54.5,46.4,30.11,NE,49,3.5,0.0,74,0.00,CLR,OVC,0.00,0.0,WeatherDisplay:10.37,2013-05-06 13:20:00,
2013-05-06 08:25:00,55.0,46.2,30.11,ENE,75,2.7,0.0,72,0.00,CLR,OVC,0.00,0.0,WeatherDisplay:10.37,2013-05-06 13:25:00,
2013-05-06 08:30:00,55.8,46.1,30.11,NE,53,0.0,0.0,70,0.00,CLR,OVC,0.00,0.0,WeatherDisplay:10.37,2013-05-06 13:30:00,
2013-05-06 08:35:00,55.9,45.5,30.11,East,83,2.3,0.0,68,0.00,CLR,OVC,0.00,0.0,WeatherDisplay:10.37,2013-05-06 13:35:00,
2013-05-06 08:40:00,56.3,45.1,30.11,East,79,0.0,0.0,66,0.00,CLR,OVC,0.00,0.0,WeatherDisplay:10.37,2013-05-06 13:40:00,
2013-05-06 08:45:00,56.5,44.9,30.11,East,79,2.3,0.0,65,0.00,CLR,OVC,0.00,0.0,WeatherDisplay:10.37,2013-05-06 13:45:00,
2013-05-06 08:50:00,56.7,45.0,30.11,ENE,57,2.3,0.0,65,0.00,CLR,OVC,0.00,0.0,WeatherDisplay:10.37,2013-05-06 13:50:00,
2013-05-06 08:55:00,56.7,44.6,30.11,ENE,61,0.0,0.0,64,0.00,CLR,OVC,0.00,0.0,WeatherDisplay:10.37,2013-05-06 13:55:00,
2013-05-06 09:00:00,56.8,44.8,30.11,NE,47,3.5,3.5,64,0.00,CLR,OVC,0.00,0.0,WeatherDisplay:10.37,2013-05-06 14:00:00,
2013-05-06 09:05:00,57.2,44.7,30.11,NE,47,0.0,0.0,63,0.00,CLR,OVC,0.00,0.0,WeatherDisplay:10.37,2013-05-06 14:05:00,
2013-05-06 09:10:00,57.6,45.1,30.11,ENE,66,0.0,0.0,63,0.00,CLR,OVC,0.00,0.0,WeatherDisplay:10.37,2013-05-06 14:10:00,
2013-05-06 09:15:00,57.7,44.8,30.11,ENE,66,0.0,0.0,62,0.00,CLR,OVC,0.00,0.0,WeatherDisplay:10.37,2013-05-06 14:15:00,
2013-05-06 09:20:00,58.1,45.1,30.11,ENE,66,0.0,0.0,62,0.00,CLR,OVC,0.00,0.0,WeatherDisplay:10.37,2013-05-06 14:20:00,
2013-05-06 09:25:00,58.6,45.7,30.11,ENE,66,0.0,0.0,62,0.00,CLR,OVC,0.00,0.0,WeatherDisplay:10.37,2013-05-06 14:25:00,
2013-05-06 09:30:00,58.8,45.0,30.11,ENE,64,3.5,3.5,60,0.00,CLR,OVC,0.00,0.0,WeatherDisplay:10.37,2013-05-06 14:30:00,
2013-05-06 09:35:00,58.8,45.0,30.11,NE,49,3.5,3.5,60,0.00,CLR,OVC,0.00,0.0,WeatherDisplay:10.37,2013-05-06 14:35:00,
2013-05-06 09:40:00,59.2,45.3,30.11,NE,49,0.0,0.0,60,0.00,CLR,OVC,0.00,0.0,WeatherDisplay:10.37,2013-05-06 14:40:00,
2013-05-06 09:45:00,59.5,45.6,30.11,NNE,29,0.0,0.0,60,0.00,CLR,OVC,0.00,0.0,WeatherDisplay:10.37,2013-05-06 14:45:00,
2013-05-06 09:50:00,60.1,46.1,30.11,NE,56,3.5,0.0,60,0.00,CLR,OVC,0.00,0.0,WeatherDisplay:10.37,2013-05-06 14:50:00,
2013-05-06 09:55:00,60.4,46.5,30.11,NE,56,3.5,3.5,60,0.00,CLR,OVC,0.00,0.0,WeatherDisplay:10.37,2013-05-06 14:55:00,
2013-05-06 10:00:00,61.0,46.5,30.11,NNE,22,2.7,0.0,59,0.00,CLR,OVC,0.00,0.0,WeatherDisplay:10.37,2013-05-06 15:00:00,
2013-05-06 10:05:00,61.5,47.1,30.11,ENE,69,0.0,0.0,59,0.00,CLR,OVC,0.00,0.0,WeatherDisplay:10.37,2013-05-06 15:05:00,
2013-05-06 10:10:00,61.9,47.4,30.11,ENE,69,0.0,0.0,59,0.00,CLR,OVC,0.00,0.0,WeatherDisplay:10.37,2013-05-06 15:10:00,
2013-05-06 10:15:00,62.6,47.1,30.11,ENE,78,2.3,0.0,57,0.00,CLR,OVC,0.00,0.0,WeatherDisplay:10.37,2013-05-06 15:15:00,
2013-05-06 10:20:00,63.0,47.5,30.11,ENE,78,0.0,0.0,57,0.00,CLR,OVC,0.00,0.0,WeatherDisplay:10.37,2013-05-06 15:20:00,
2013-05-06 10:25:00,63.9,47.4,30.11,NNE,15,3.5,3.5,55,0.00,CLR,OVC,0.00,0.0,WeatherDisplay:10.37,2013-05-06 15:25:00,
2013-05-06 10:30:00,64.6,47.1,30.11,NE,43,0.0,0.0,53,0.00,CLR,OVC,0.00,0.0,WeatherDisplay:10.37,2013-05-06 15:30:00,
2013-05-06 10:35:00,65.5,47.4,30.11,ENE,62,3.6,3.6,52,0.00,CLR,OVC,0.00,0.0,WeatherDisplay:10.37,2013-05-06 15:35:00,
2013-05-06 10:40:00,66.4,48.2,30.11,East,84,2.3,2.3,52,0.00,CLR,OVC,0.00,0.0,WeatherDisplay:10.37,2013-05-06 15:40:00,
2013-05-06 10:45:00,67.3,48.0,30.08,NNE,15,3.6,3.6,50,0.00,CLR,OVC,0.00,0.0,WeatherDisplay:10.37,2013-05-06 15:45:00,
2013-05-06 10:50:00,67.5,48.2,30.08,NE,44,0.0,0.0,50,0.00,CLR,OVC,0.00,0.0,WeatherDisplay:10.37,2013-05-06 15:50:00,
2013-05-06 10:55:00,68.2,48.3,30.08,NNE,25,4.6,4.6,49,0.00,CLR,OVC,0.00,0.0,WeatherDisplay:10.37,2013-05-06 15:55:00,
2013-05-06 11:00:00,68.2,47.7,30.08,NE,35,3.5,3.5,48,0.00,CLR,OVC,0.00,0.0,WeatherDisplay:10.37,2013-05-06 16:00:00,
2013-05-06 11:05:00,68.9,48.9,30.08,ESE,104,0.0,0.0,49,0.00,CLR,OVC,0.00,0.0,WeatherDisplay:10.37,2013-05-06 16:05:00,
2013-05-06 11:10:00,69.8,49.2,30.08,NE,50,3.5,3.5,48,0.00,CLR,OVC,0.00,0.0,WeatherDisplay:10.37,2013-05-06 16:10:00,
2013-05-06 11:15:00,70.5,49.9,30.08,NE,53,3.5,3.5,48,0.00,CLR,OVC,0.00,0.0,WeatherDisplay:10.37,2013-05-06 16:15:00,
2013-05-06 11:20:00,71.1,50.4,30.08,East,100,0.0,0.0,48,0.00,CLR,OVC,0.00,0.0,WeatherDisplay:10.37,2013-05-06 16:20:00,
2013-05-06 11:25:00,71.8,50.5,30.08,East,87,3.5,3.5,47,0.00,CLR,OVC,0.00,0.0,WeatherDisplay:10.37,2013-05-06 16:25:00,
2013-05-06 11:30:00,72.0,50.6,30.08,ENE,75,2.3,2.3,47,0.00,CLR,OVC,0.00,0.0,WeatherDisplay:10.37,2013-05-06 16:30:00,
2013-05-06 11:35:00,72.5,51.1,30.08,North,0,3.5,0.0,47,0.00,CLR,OVC,0.00,0.0,WeatherDisplay:10.37,2013-05-06 16:35:00,
2013-05-06 11:40:00,72.7,51.3,30.08,NNE,21,3.5,3.6,47,0.00,CLR,OVC,0.00,0.0,WeatherDisplay:10.37,2013-05-06 16:40:00,
2013-05-06 11:45:00,72.5,51.1,30.08,NNW,334,2.3,0.0,47,0.00,CLR,OVC,0.00,0.0,WeatherDisplay:10.37,2013-05-06 16:45:00,
2013-05-06 11:50:00,73.0,51.6,30.08,East,95,2.3,0.0,47,0.00,CLR,OVC,0.00,0.0,WeatherDisplay:10.37,2013-05-06 16:50:00,
2013-05-06 11:55:00,74.1,52.0,30.08,ENE,63,2.3,2.7,46,0.00,CLR,OVC,0.00,0.0,WeatherDisplay:10.37,2013-05-06 16:55:00,
2013-05-06 12:00:00,74.1,52.0,30.08,East,81,3.5,3.6,46,0.00,CLR,OVC,0.00,0.0,WeatherDisplay:10.37,2013-05-06 17:00:00,
2013-05-06 12:05:00,74.5,52.3,30.08,WSW,243,3.5,3.5,46,0.00,CLR,OVC,0.00,0.0,WeatherDisplay:10.37,2013-05-06 17:05:00,
2013-05-06 12:10:00,74.5,52.3,30.08,North,8,5.8,0.0,46,0.00,CLR,OVC,0.00,0.0,WeatherDisplay:10.37,2013-05-06 17:10:00,
2013-05-06 12:14:00,75.0,52.8,30.08,NE,44,3.5,3.5,46,0.00,CLR,OVC,0.00,0.0,WeatherDisplay:10.37,2013-05-06 17:14:00,
2013-05-06 12:19:00,75.4,52.6,30.08,NNW,335,4.6,4.6,45,0.00,CLR,OVC,0.00,0.0,WeatherDisplay:10.37,2013-05-06 17:19:00,
2013-05-06 12:24:00,74.7,52.5,30.08,NNW,331,3.5,0.0,46,0.00,CLR,OVC,0.00,0.0,WeatherDisplay:10.37,2013-05-06 17:24:00,
2013-05-06 12:29:00,74.8,52.7,30.05,ENE,65,3.5,3.5,46,0.00,CLR,OVC,0.00,0.0,WeatherDisplay:10.37,2013-05-06 17:29:00,
2013-05-06 12:34:00,75.0,52.8,30.05,SSE,152,3.5,0.0,46,0.00,CLR,OVC,0.00,0.0,WeatherDisplay:10.37,2013-05-06 17:34:00,
2013-05-06 12:39:00,75.4,52.6,30.05,East,79,3.5,0.0,45,0.00,CLR,OVC,0.00,0.0,WeatherDisplay:10.37,2013-05-06 17:39:00,
2013-05-06 12:44:00,75.7,52.9,30.05,ENE,64,3.5,3.5,45,0.00,CLR,OVC,0.00,0.0,WeatherDisplay:10.37,2013-05-06 17:44:00,
2013-05-06 12:49:00,75.7,52.9,30.05,NE,48,3.5,3.5,45,0.00,CLR,OVC,0.00,0.0,WeatherDisplay:10.37,2013-05-06 17:49:00,
2013-05-06 12:54:00,75.2,51.2,30.05,East,83,5.8,5.8,43,0.00,CLR,OVC,0.00,0.0,WeatherDisplay:10.37,2013-05-06 17:54:00,
2013-05-06 12:59:00,74.8,52.7,30.05,SSW,196,3.5,3.5,46,0.00,CLR,OVC,0.00,0.0,WeatherDisplay:10.37,2013-05-06 17:59:00,
2013-05-06 13:04:00,74.8,52.7,30.05,North,353,0.0,0.0,46,0.00,CLR,OVC,0.00,0.0,WeatherDisplay:10.37,2013-05-06 18:04:00,
2013-05-06 13:09:00,75.0,52.8,30.05,ESE,120,2.3,2.7,46,0.00,CLR,OVC,0.00,0.0,WeatherDisplay:10.37,2013-05-06 18:09:00,
2013-05-06 13:14:00,75.0,51.0,30.05,East,101,3.5,3.5,43,0.00,CLR,OVC,0.00,0.0,WeatherDisplay:10.37,2013-05-06 18:14:00,
2013-05-06 13:19:00,75.0,52.8,30.05,SSE,155,2.3,2.3,46,0.00,CLR,OVC,0.00,0.0,WeatherDisplay:10.37,2013-05-06 18:19:00,
2013-05-06 13:24:00,75.2,51.2,30.05,NE,50,4.6,4.6,43,0.00,CLR,OVC,0.00,0.0,WeatherDisplay:10.37,2013-05-06 18:24:00,
2013-05-06 13:29:00,74.3,50.4,30.05,East,87,3.5,3.6,43,0.00,CLR,OVC,0.00,0.0,WeatherDisplay:10.37,2013-05-06 18:29:00,
2013-05-06 13:34:00,74.3,50.4,30.05,NE,43,4.6,4.6,43,0.00,CLR,OVC,0.00,0.0,WeatherDisplay:10.37,2013-05-06 18:34:00,
2013-05-06 13:39:00,74.3,50.4,30.05,North,7,3.5,3.6,43,0.00,CLR,OVC,0.00,0.0,WeatherDisplay:10.37,2013-05-06 18:39:00,
2013-05-06 13:44:00,74.3,52.2,30.05,SSW,207,2.3,0.0,46,0.00,CLR,OVC,0.00,0.0,WeatherDisplay:10.37,2013-05-06 18:44:00,
2013-05-06 13:49:00,75.0,51.0,30.05,ENE,65,3.5,3.5,43,0.00,CLR,OVC,0.00,0.0,WeatherDisplay:10.37,2013-05-06 18:49:00,
2013-05-06 13:54:00,75.6,51.5,30.05,East,100,2.3,0.0,43,0.00,CLR,OVC,0.00,0.0,WeatherDisplay:10.37,2013-05-06 18:54:00,
2013-05-06 13:59:00,75.7,51.6,30.05,NE,41,4.6,4.6,43,0.00,CLR,OVC,0.00,0.0,WeatherDisplay:10.37,2013-05-06 18:59:00,
2013-05-06 14:04:00,75.4,51.3,30.05,ENE,75,3.5,3.5,43,0.00,CLR,OVC,0.00,0.0,WeatherDisplay:10.37,2013-05-06 19:04:00,
2013-05-06 14:09:00,75.4,51.3,30.05,NNW,331,0.0,0.0,43,0.00,CLR,OVC,0.00,0.0,WeatherDisplay:10.37,2013-05-06 19:09:00,
2013-05-06 14:14:00,75.4,51.3,30.05,South,175,3.5,0.0,43,0.00,CLR,OVC,0.00,0.0,WeatherDisplay:10.37,2013-05-06 19:14:00,
2013-05-06 14:19:00,75.9,51.8,30.05,ENE,75,3.5,3.5,43,0.00,CLR,OVC,0.00,0.0,WeatherDisplay:10.37,2013-05-06 19:19:00,
2013-05-06 14:24:00,76.3,52.1,30.05,NE,48,3.5,3.5,43,0.00,CLR,OVC,0.00,0.0,WeatherDisplay:10.37,2013-05-06 19:24:00,
2013-05-06 14:29:00,76.5,52.3,30.05,NE,55,3.1,0.0,43,0.00,CLR,OVC,0.00,0.0,WeatherDisplay:10.37,2013-05-06 19:29:00,
2013-05-06 14:34:00,76.6,52.5,30.05,NE,50,5.8,5.8,43,0.00,CLR,OVC,0.00,0.0,WeatherDisplay:10.37,2013-05-06 19:34:00,
2013-05-06 14:39:00,76.8,52.6,30.05,East,79,4.6,4.6,43,0.00,CLR,OVC,0.00,0.0,WeatherDisplay:10.37,2013-05-06 19:39:00,
2013-05-06 14:44:00,77.4,53.1,30.05,NE,55,5.8,5.8,43,0.00,CLR,OVC,0.00,0.0,WeatherDisplay:10.37,2013-05-06 19:44:00,
2013-05-06 14:49:00,77.0,52.8,30.05,East,98,5.8,5.8,43,0.00,CLR,OVC,0.00,0.0,WeatherDisplay:10.37,2013-05-06 19:49:00,
2013-05-06 14:54:00,76.6,52.5,30.05,NNE,16,5.8,5.8,43,0.00,CLR,OVC,0.00,0.0,WeatherDisplay:10.37,2013-05-06 19:54:00,
2013-05-06 14:59:00,75.7,51.6,30.02,North,0,3.5,3.5,43,0.00,CLR,OVC,0.00,0.0,WeatherDisplay:10.37,2013-05-06 19:59:00,
2013-05-06 15:04:00,75.4,51.3,30.02,East,90,5.8,5.8,43,0.00,CLR,OVC,0.00,0.0,WeatherDisplay:10.37,2013-05-06 20:04:00,
2013-05-06 15:09:00,75.7,51.6,30.02,SSE,158,3.5,3.5,43,0.00,CLR,OVC,0.00,0.0,WeatherDisplay:10.37,2013-05-06 20:09:00,
2013-05-06 15:14:00,75.7,51.6,30.02,SSW,197,4.6,4.6,43,0.00,CLR,OVC,0.00,0.0,WeatherDisplay:10.37,2013-05-06 20:14:00,
2013-05-06 15:19:00,75.7,51.6,30.02,North,0,3.5,3.5,43,0.00,CLR,OVC,0.00,0.0,WeatherDisplay:10.37,2013-05-06 20:19:00,
2013-05-06 15:24:00,75.4,51.3,30.02,ENE,78,4.6,4.6,43,0.00,CLR,OVC,0.00,0.0,WeatherDisplay:10.37,2013-05-06 20:24:00,
2013-05-06 15:29:00,75.0,51.0,30.02,East,82,2.3,0.0,43,0.00,CLR,OVC,0.00,0.0,WeatherDisplay:10.37,2013-05-06 20:29:00,
2013-05-06 15:34:00,74.8,50.8,30.02,West,268,3.5,3.5,43,0.00,CLR,OVC,0.00,0.0,WeatherDisplay:10.37,2013-05-06 20:34:00,
2013-05-06 15:39:00,74.1,50.2,30.02,NNW,335,2.3,0.0,43,0.00,CLR,OVC,0.00,0.0,WeatherDisplay:10.37,2013-05-06 20:39:00,
2013-05-06 15:44:00,73.9,50.0,30.02,East,85,3.5,0.0,43,0.00,CLR,OVC,0.00,0.0,WeatherDisplay:10.37,2013-05-06 20:44:00,
2013-05-06 15:49:00,74.5,50.5,30.02,NNE,30,3.5,3.5,43,0.00,CLR,OVC,0.00,0.0,WeatherDisplay:10.37,2013-05-06 20:49:00,
2013-05-06 15:54:00,74.7,50.7,30.02,ENE,62,4.6,4.6,43,0.00,CLR,OVC,0.00,0.0,WeatherDisplay:10.37,2013-05-06 20:54:00,
2013-05-06 15:59:00,74.3,50.4,30.02,WSW,253,2.3,0.0,43,0.00,CLR,OVC,0.00,0.0,WeatherDisplay:10.37,2013-05-06 20:59:00,
2013-05-06 16:04:00,74.5,50.5,30.02,SE,128,2.3,0.0,43,0.00,CLR,OVC,0.00,0.0,WeatherDisplay:10.37,2013-05-06 21:04:00,
2013-05-06 16:09:00,74.7,50.7,30.02,East,83,2.3,0.0,43,0.00,CLR,OVC,0.00,0.0,WeatherDisplay:10.37,2013-05-06 21:09:00,
2013-05-06 16:14:00,74.7,50.7,30.02,SSE,158,0.0,0.0,43,0.00,CLR,OVC,0.00,0.0,WeatherDisplay:10.37,2013-05-06 21:14:00,
2013-05-06 16:19:00,74.8,50.8,30.02,SW,231,3.5,0.0,43,0.00,CLR,OVC,0.00,0.0,WeatherDisplay:10.37,2013-05-06 21:19:00,
2013-05-06 16:24:00,74.8,50.8,30.02,SW,231,0.0,0.0,43,0.00,CLR,OVC,0.00,0.0,WeatherDisplay:10.37,2013-05-06 21:24:00,
2013-05-06 16:29:00,74.7,50.7,29.99,ESE,115,3.5,0.0,43,0.00,CLR,OVC,0.00,0.0,WeatherDisplay:10.37,2013-05-06 21:29:00,
2013-05-06 16:34:00,74.7,50.7,29.99,ESE,108,3.5,3.5,43,0.00,CLR,OVC,0.00,0.0,WeatherDisplay:10.37,2013-05-06 21:34:00,
2013-05-06 16:39:00,74.5,50.5,29.99,NNE,32,0.0,0.0,43,0.00,CLR,OVC,0.00,0.0,WeatherDisplay:10.37,2013-05-06 21:39:00,
2013-05-06 16:44:00,74.5,50.5,29.99,East,95,3.5,0.0,43,0.00,CLR,OVC,0.00,0.0,WeatherDisplay:10.37,2013-05-06 21:44:00,
2013-05-06 16:49:00,74.5,50.5,29.99,East,95,0.0,0.0,43,0.00,CLR,OVC,0.00,0.0,WeatherDisplay:10.37,2013-05-06 21:49:00,
2013-05-06 16:54:00,74.7,50.7,29.99,ENE,59,3.5,3.5,43,0.00,CLR,OVC,0.00,0.0,WeatherDisplay:10.37,2013-05-06 21:54:00,
2013-05-06 16:59:00,74.5,50.5,29.99,East,93,2.3,2.3,43,0.00,CLR,OVC,0.00,0.0,WeatherDisplay:10.37,2013-05-06 21:59:00,
2013-05-06 17:04:00,74.3,50.4,29.99,NE,38,3.5,3.6,43,0.00,CLR,OVC,0.00,0.0,WeatherDisplay:10.37,2013-05-06 22:04:00,
2013-05-06 17:09:00,73.8,48.6,29.99,NNE,18,2.3,0.0,41,0.00,CLR,OVC,0.00,0.0,WeatherDisplay:10.37,2013-05-06 22:09:00,
2013-05-06 17:14:00,73.4,49.5,29.99,NE,39,2.3,0.0,43,0.00,CLR,OVC,0.00,0.0,WeatherDisplay:10.37,2013-05-06 22:14:00,
2013-05-06 17:19:00,73.0,47.9,29.99,NNE,18,0.0,0.0,41,0.00,CLR,OVC,0.00,0.0,WeatherDisplay:10.37,2013-05-06 22:19:00,
2013-05-06 17:24:00,73.0,47.9,29.99,NNE,18,0.0,0.0,41,0.00,CLR,OVC,0.00,0.0,WeatherDisplay:10.37,2013-05-06 22:24:00,
2013-05-06 17:29:00,73.0,49.8,29.99,NNE,18,0.0,0.0,44,0.00,CLR,OVC,0.00,0.0,WeatherDisplay:10.37,2013-05-06 22:29:00,
2013-05-06 17:34:00,72.9,49.7,29.99,NNE,18,0.0,0.0,44,0.00,CLR,OVC,0.00,0.0,WeatherDisplay:10.37,2013-05-06 22:34:00,
2013-05-06 17:39:00,72.9,49.7,29.99,NNE,18,0.0,0.0,44,0.00,CLR,OVC,0.00,0.0,WeatherDisplay:10.37,2013-05-06 22:39:00,
2013-05-06 17:44:00,72.7,49.5,29.99,NNE,18,0.0,0.0,44,0.00,CLR,OVC,0.00,0.0,WeatherDisplay:10.37,2013-05-06 22:44:00,
2013-05-06 17:49:00,72.3,49.2,29.99,NNE,18,0.0,0.0,44,0.00,CLR,OVC,0.00,0.0,WeatherDisplay:10.37,2013-05-06 22:49:00,
2013-05-06 17:54:00,72.0,48.9,29.99,NNE,18,0.0,0.0,44,0.00,CLR,OVC,0.00,0.0,WeatherDisplay:10.37,2013-05-06 22:54:00,
2013-05-06 17:59:00,72.0,48.9,29.99,NNE,18,0.0,0.0,44,0.00,CLR,OVC,0.00,0.0,WeatherDisplay:10.37,2013-05-06 22:59:00,
2013-05-06 18:04:00,72.0,48.9,29.99,NNE,18,0.0,0.0,44,0.00,CLR,OVC,0.00,0.0,WeatherDisplay:10.37,2013-05-06 23:04:00,
2013-05-06 18:09:00,71.8,48.7,29.99,NNE,18,0.0,0.0,44,0.00,CLR,OVC,0.00,0.0,WeatherDisplay:10.37,2013-05-06 23:09:00,
2013-05-06 18:14:00,71.6,48.5,29.99,NNE,18,0.0,0.0,44,0.00,CLR,OVC,0.00,0.0,WeatherDisplay:10.37,2013-05-06 23:14:00,
2013-05-06 18:19:00,71.2,48.2,29.99,NNE,18,0.0,0.0,44,0.00,CLR,OVC,0.00,0.0,WeatherDisplay:10.37,2013-05-06 23:19:00,
2013-05-06 18:24:00,70.9,49.6,29.99,NNE,18,0.0,0.0,47,0.00,CLR,OVC,0.00,0.0,WeatherDisplay:10.37,2013-05-06 23:24:00,
2013-05-06 18:29:00,70.5,49.3,29.99,NNE,18,0.0,0.0,47,0.00,CLR,OVC,0.00,0.0,WeatherDisplay:10.37,2013-05-06 23:29:00,
2013-05-06 18:34:00,70.0,48.8,29.99,NNE,18,0.0,0.0,47,0.00,CLR,OVC,0.00,0.0,WeatherDisplay:10.37,2013-05-06 23:34:00,
2013-05-06 18:39:00,69.4,48.3,29.99,NNE,18,0.0,0.0,47,0.00,CLR,OVC,0.00,0.0,WeatherDisplay:10.37,2013-05-06 23:39:00,
2013-05-06 18:44:00,68.7,47.7,29.99,NNE,18,0.0,0.0,47,0.00,CLR,OVC,0.00,0.0,WeatherDisplay:10.37,2013-05-06 23:44:00,
2013-05-06 18:49:00,68.2,47.7,29.99,NNE,18,0.0,0.0,48,0.00,CLR,OVC,0.00,0.0,WeatherDisplay:10.37,2013-05-06 23:49:00,
2013-05-06 18:54:00,67.8,47.4,29.99,NNE,18,0.0,0.0,48,0.00,CLR,OVC,0.00,0.0,WeatherDisplay:10.37,2013-05-06 23:54:00,
2013-05-06 18:59:00,67.3,47.5,29.99,NNE,18,0.0,0.0,49,0.00,CLR,OVC,0.00,0.0,WeatherDisplay:10.37,2013-05-06 23:59:00,
2013-05-06 19:04:00,66.9,47.1,29.99,NNE,18,0.0,0.0,49,0.00,CLR,OVC,0.00,0.0,WeatherDisplay:10.37,2013-05-07 00:04:00,
2013-05-06 19:09:00,66.6,46.8,29.99,NNE,18,0.0,0.0,49,0.00,CLR,OVC,0.00,0.0,WeatherDisplay:10.37,2013-05-07 00:09:00,
2013-05-06 19:14:00,66.0,46.8,29.99,NNE,18,0.0,0.0,50,0.00,CLR,OVC,0.00,0.0,WeatherDisplay:10.37,2013-05-07 00:14:00,
2013-05-06 19:19:00,65.7,46.5,29.99,NNE,18,0.0,0.0,50,0.00,CLR,OVC,0.00,0.0,WeatherDisplay:10.37,2013-05-07 00:19:00,
2013-05-06 19:24:00,65.1,46.0,29.99,NNE,18,0.0,0.0,50,0.00,CLR,OVC,0.00,0.0,WeatherDisplay:10.37,2013-05-07 00:24:00,
2013-05-06 19:29:00,64.8,45.7,29.99,NNE,18,0.0,0.0,50,0.00,CLR,OVC,0.00,0.0,WeatherDisplay:10.37,2013-05-07 00:29:00,
2013-05-06 19:34:00,64.4,45.3,29.99,NNE,18,0.0,0.0,50,0.00,CLR,OVC,0.00,0.0,WeatherDisplay:10.37,2013-05-07 00:34:00,
2013-05-06 19:39:00,64.2,46.2,29.99,NNE,18,0.0,0.0,52,0.00,CLR,OVC,0.00,0.0,WeatherDisplay:10.37,2013-05-07 00:39:00,
2013-05-06 19:44:00,63.9,46.4,29.99,NNE,18,0.0,0.0,53,0.00,CLR,OVC,0.00,0.0,WeatherDisplay:10.37,2013-05-07 00:44:00,
2013-05-06 19:49:00,63.1,45.7,29.99,NNE,18,0.0,0.0,53,0.00,CLR,OVC,0.00,0.0,WeatherDisplay:10.37,2013-05-07 00:49:00,
2013-05-06 19:54:00,62.6,45.2,29.99,NNE,18,0.0,0.0,53,0.00,CLR,OVC,0.00,0.0,WeatherDisplay:10.37,2013-05-07 00:54:00,
2013-05-06 19:59:00,62.1,45.2,29.99,NNE,18,0.0,0.0,54,0.00,CLR,OVC,0.00,0.0,WeatherDisplay:10.37,2013-05-07 00:59:00,
2013-05-06 20:04:00,61.3,44.5,29.99,NNE,18,0.0,0.0,54,0.00,CLR,OVC,0.00,0.0,WeatherDisplay:10.37,2013-05-07 01:04:00,
2013-05-06 20:09:00,60.8,44.0,29.99,NNE,18,0.0,0.0,54,0.00,CLR,OVC,0.00,0.0,WeatherDisplay:10.37,2013-05-07 01:09:00,
2013-05-06 20:14:00,60.1,44.3,29.99,NNE,18,0.0,0.0,56,0.00,CLR,OVC,0.00,0.0,WeatherDisplay:10.37,2013-05-07 01:14:00,
2013-05-06 20:19:00,59.5,44.3,29.99,NNE,18,0.0,0.0,57,0.00,CLR,OVC,0.00,0.0,WeatherDisplay:10.37,2013-05-07 01:19:00,
2013-05-06 20:24:00,59.0,44.7,29.99,NNE,18,0.0,0.0,59,0.00,CLR,OVC,0.00,0.0,WeatherDisplay:10.37,2013-05-07 01:24:00,
2013-05-06 20:29:00,58.5,44.6,29.99,NNE,18,0.0,0.0,60,0.00,CLR,OVC,0.00,0.0,WeatherDisplay:10.37,2013-05-07 01:29:00,
2013-05-06 20:34:00,57.7,43.9,29.99,NNE,18,0.0,0.0,60,0.00,CLR,OVC,0.00,0.0,WeatherDisplay:10.37,2013-05-07 01:34:00,
2013-05-06 20:39:00,57.2,43.4,29.99,NNE,18,0.0,0.0,60,0.00,CLR,OVC,0.00,0.0,WeatherDisplay:10.37,2013-05-07 01:39:00,
2013-05-06 20:44:00,56.8,43.1,30.02,NNE,18,0.0,0.0,60,0.00,CLR,OVC,0.00,0.0,WeatherDisplay:10.37,2013-05-07 01:44:00,
2013-05-06 20:49:00,56.3,43.0,30.02,NNE,18,0.0,0.0,61,0.00,CLR,OVC,0.00,0.0,WeatherDisplay:10.37,2013-05-07 01:49:00,
2013-05-06 20:54:00,55.9,42.7,30.02,NNE,18,0.0,0.0,61,0.00,CLR,OVC,0.00,0.0,WeatherDisplay:10.37,2013-05-07 01:54:00,
2013-05-06 20:58:00,55.8,42.5,30.02,NNE,18,0.0,0.0,61,0.00,CLR,OVC,0.00,0.0,WeatherDisplay:10.37,2013-05-07 01:58:00,
2013-05-06 21:03:00,55.6,42.3,30.02,NNE,18,0.0,0.0,61,0.00,CLR,OVC,0.00,0.0,WeatherDisplay:10.37,2013-05-07 02:03:00,
2013-05-06 21:08:00,55.2,42.4,30.02,NNE,18,0.0,0.0,62,0.00,CLR,OVC,0.00,0.0,WeatherDisplay:10.37,2013-05-07 02:08:00,
2013-05-06 21:13:00,55.0,42.7,30.02,NNE,18,0.0,0.0,63,0.00,CLR,OVC,0.00,0.0,WeatherDisplay:10.37,2013-05-07 02:13:00,
2013-05-06 21:18:00,55.0,42.7,30.02,NNE,18,0.0,0.0,63,0.00,CLR,OVC,0.00,0.0,WeatherDisplay:10.37,2013-05-07 02:18:00,
2013-05-06 21:23:00,54.7,42.3,30.02,NNE,18,0.0,0.0,63,0.00,CLR,OVC,0.00,0.0,WeatherDisplay:10.37,2013-05-07 02:23:00,
2013-05-06 21:28:00,54.5,43.0,30.02,NNE,18,0.0,0.0,65,0.00,CLR,OVC,0.00,0.0,WeatherDisplay:10.37,2013-05-07 02:28:00,
2013-05-06 21:33:00,54.5,43.0,30.02,NNE,18,0.0,0.0,65,0.00,CLR,OVC,0.00,0.0,WeatherDisplay:10.37,2013-05-07 02:33:00,
2013-05-06 21:38:00,54.1,42.6,30.02,NNE,18,0.0,0.0,65,0.00,CLR,OVC,0.00,0.0,WeatherDisplay:10.37,2013-05-07 02:38:00,
2013-05-06 21:43:00,54.0,42.5,30.02,NNE,18,0.0,0.0,65,0.00,CLR,OVC,0.00,0.0,WeatherDisplay:10.37,2013-05-07 02:43:00,
2013-05-06 21:48:00,53.6,42.5,30.02,NNE,18,0.0,0.0,66,0.00,CLR,OVC,0.00,0.0,WeatherDisplay:10.37,2013-05-07 02:48:00,
2013-05-06 21:53:00,53.2,42.6,30.02,NNE,18,0.0,0.0,67,0.00,CLR,OVC,0.00,0.0,WeatherDisplay:10.37,2013-05-07 02:53:00,
2013-05-06 21:58:00,52.9,42.2,30.02,NNE,18,0.0,0.0,67,0.00,CLR,OVC,0.00,0.0,WeatherDisplay:10.37,2013-05-07 02:58:00,
2013-05-06 22:03:00,52.5,42.3,30.02,NNE,18,0.0,0.0,68,0.00,CLR,OVC,0.00,0.0,WeatherDisplay:10.37,2013-05-07 03:03:00,
2013-05-06 22:09:00,52.3,42.1,30.02,NNE,18,0.0,0.0,68,0.00,CLR,OVC,0.00,0.0,WeatherDisplay:10.37,2013-05-07 03:09:00,
2013-05-06 22:14:00,52.0,42.1,30.02,NNE,18,0.0,0.0,69,0.00,CLR,OVC,0.00,0.0,WeatherDisplay:10.37,2013-05-07 03:14:00,
2013-05-06 22:19:00,52.0,42.1,30.02,NNE,18,0.0,0.0,69,0.00,CLR,OVC,0.00,0.0,WeatherDisplay:10.37,2013-05-07 03:19:00,
2013-05-06 22:24:00,51.8,42.3,30.02,NNE,18,0.0,0.0,70,0.00,CLR,OVC,0.00,0.0,WeatherDisplay:10.37,2013-05-07 03:24:00,
2013-05-06 22:29:00,51.4,42.3,30.02,NNE,18,0.0,0.0,71,0.00,CLR,OVC,0.00,0.0,WeatherDisplay:10.37,2013-05-07 03:29:00,
2013-05-06 22:34:00,51.3,42.5,30.02,NNE,18,0.0,0.0,72,0.00,CLR,OVC,0.00,0.0,WeatherDisplay:10.37,2013-05-07 03:34:00,
2013-05-06 22:39:00,51.1,42.4,30.02,NNE,18,0.0,0.0,72,0.00,CLR,OVC,0.00,0.0,WeatherDisplay:10.37,2013-05-07 03:39:00,
2013-05-06 22:44:00,50.9,42.2,30.02,NNE,18,0.0,0.0,72,0.00,CLR,OVC,0.00,0.0,WeatherDisplay:10.37,2013-05-07 03:44:00,
2013-05-06 22:49:00,50.7,42.4,30.02,NNE,18,0.0,0.0,73,0.00,CLR,OVC,0.00,0.0,WeatherDisplay:10.37,2013-05-07 03:49:00,
2013-05-06 22:54:00,50.7,42.4,30.02,NNE,18,0.0,0.0,73,0.00,CLR,OVC,0.00,0.0,WeatherDisplay:10.37,2013-05-07 03:54:00,
2013-05-06 22:59:00,50.5,42.6,30.02,NNE,18,0.0,0.0,74,0.00,CLR,OVC,0.00,0.0,WeatherDisplay:10.37,2013-05-07 03:59:00,
2013-05-06 23:01:00,50.5,42.6,30.02,NNE,18,0.0,0.0,74,0.00,CLR,OVC,0.00,0.0,WeatherDisplay:10.37,2013-05-07 04:01:00,
2013-05-06 23:06:00,50.4,42.4,30.02,NNE,18,0.0,0.0,74,0.00,CLR,OVC,0.00,0.0,WeatherDisplay:10.37,2013-05-07 04:06:00,
2013-05-06 23:11:00,50.2,42.6,30.02,NNE,18,0.0,0.0,75,0.00,CLR,OVC,0.00,0.0,WeatherDisplay:10.37,2013-05-07 04:11:00,
2013-05-06 23:16:00,50.2,42.9,30.02,NNE,18,0.0,0.0,76,0.00,CLR,OVC,0.00,0.0,WeatherDisplay:10.37,2013-05-07 04:16:00,
2013-05-06 23:21:00,50.0,42.7,30.02,NNE,18,0.0,0.0,76,0.00,CLR,OVC,0.00,0.0,WeatherDisplay:10.37,2013-05-07 04:21:00,
2013-05-06 23:26:00,50.0,42.7,30.02,NNE,18,0.0,0.0,76,0.00,CLR,OVC,0.00,0.0,WeatherDisplay:10.37,2013-05-07 04:26:00,
2013-05-06 23:31:00,50.0,43.1,30.02,NNE,18,0.0,0.0,77,0.00,CLR,OVC,0.00,0.0,WeatherDisplay:10.37,2013-05-07 04:31:00,
2013-05-06 23:36:00,49.8,42.9,30.02,NNE,18,0.0,0.0,77,0.00,CLR,OVC,0.00,0.0,WeatherDisplay:10.37,2013-05-07 04:36:00,
2013-05-06 23:41:00,49.6,43.1,30.02,NNE,18,0.0,0.0,78,0.00,CLR,OVC,0.00,0.0,WeatherDisplay:10.37,2013-05-07 04:41:00,
2013-05-06 23:46:00,49.5,42.9,30.02,NNE,18,0.0,0.0,78,0.00,CLR,OVC,0.00,0.0,WeatherDisplay:10.37,2013-05-07 04:46:00,
2013-05-06 23:51:00,49.3,42.7,30.02,NNE,18,0.0,0.0,78,0.00,CLR,OVC,0.00,0.0,WeatherDisplay:10.37,2013-05-07 04:51:00,
2013-05-06 23:56:00,49.1,42.9,30.02,NNE,18,0.0,0.0,79,0.00,CLR,OVC,0.00,0.0,WeatherDisplay:10.37,2013-05-07 04:56:00,